CAPE
0 5 17 130 230 8 30 174 139 11 763 631 472 295 351 297 299 423 594 703 886 1092 1322 1505 1494 1511 1639 2283 2884 3139 3169 3510
0 7 36 37 117 88 145 197 237 126 512 1260 747 433 450 283 382 527 665 784 914 1158 1318 1423 1525 1734 2021 1922 2566 2778 2886 3054
38 36 54 35 51 106 120 118 152 18 71 250 963 607 566 400 318 454 597 761 1082 1211 1587 2000 2214 2131 2153 2160 2588 3049 3099 3776
116 50 41 128 169 48 151 190 396 112 124 47 806 723 611 505 468 562 857 1273 1867 2384 2718 2862 3070 3239 3178 2127 714 185 121 228
339 59 114 58 93 99 86 81 482 186 154 271 844 1047 1026 895 1030 1365 1807 2236 2469 2777 3205 2999 1843 707 214 109 21 0 0 0
310 293 184 184 49 36 25 141 103 0 323 2 669 1273 1513 1530 1837 2207 2516 2501 2225 1691 955 568 570 625 577 457 305 129 34 0
52 98 355 361 376 349 254 61 107 170 211 218 650 1619 1841 2253 2510 2594 2440 1992 1224 742 697 809 824 683 435 287 266 160 152 62
32 27 236 130 250 207 222 170 76 98 75 0 87 2111 2348 2521 2655 2479 2000 1441 936 752 729 675 654 568 297 85 85 92 188 110
105 131 214 216 252 422 298 153 166 127 649 618 1093 1519 2124 2480 2575 2356 1657 934 589 539 618 598 516 278 158 69 91 142 171 134
428 383 371 274 423 504 379 280 312 224 176 1084 1196 1469 1839 2437 2485 2034 1191 612 502 414 503 341 187 125 76 26 72 118 57 5
421 518 463 424 577 368 236 125 40 270 244 617 732 1084 1694 2146 2195 1718 921 477 429 349 357 235 153 127 84 6 0 1 2 6
723 454 228 438 127 82 270 449 324 247 220 724 1057 912 1627 2226 1791 1178 636 425 340 305 207 174 152 102 19 0 0 0 7 8
628 189 424 392 91 19 368 854 717 458 557 1079 1429 1750 2105 2018 1363 772 457 472 409 268 216 238 147 11 1 0 3 6 7 11
77 426 357 219 288 187 742 949 843 902 1208 1446 1695 1445 1565 1164 703 555 523 475 316 310 277 112 11 0 0 2 1 2 9 13
29 333 699 659 712 893 521 646 922 1130 1327 1911 1473 1230 1061 971 758 562 475 414 279 143 21 7 3 0 0 0 6 7 9 11
224 741 705 621 563 389 407 485 850 989 1499 1613 1407 1192 1000 860 623 424 289 143 50 20 3 0 0 3 5 9 10 10 8 3
457 507 376 564 565 526 465 435 757 992 1206 1266 1179 996 779 519 253 114 50 19 0 0 1 7 4 8 8 11 5 4 6 8
1096 762 609 573 434 473 463 575 735 893 1042 1076 982 641 337 144 72 47 22 0 0 2 4 3 8 8 7 8 4 8 10 8
625 355 220 176 188 380 555 703 758 706 729 485 220 136 82 40 28 2 0 0 1 0 1 2 3 7 7 12 9 10 6 7
CIN
-0 -35 -31 -0 -0 -36 -40 -0 -1 -156 -4 -3 -15 -11 -15 -4 -36 -19 -4 -0 -0 -0 -0 -0 -9 -13 -19 -18 -2 -0 -0 -0
-0 -30 -34 -18 -0 -1 -7 -3 -0 -59 -0 -0 -21 -26 -17 -2 -9 -3 -0 -0 -0 -1 -3 -3 -0 -0 -13 -47 -11 -0 -0 -0
-31 -64 -28 -27 -26 -0 -3 -3 -12 -17 -30 -15 -17 -38 -21 -2 -10 -10 -0 -0 -0 -0 -0 -0 -0 -1 -0 -34 -6 -0 -0 -6
-10 -24 -24 -7 -1 -2 -0 -0 -74 -54 -59 -362 -24 -20 -18 -1 -1 -0 -1 -0 -1 -0 -1 -1 -0 -0 -0 -44 -107 -142 -157 -126
-0 -10 -2 -33 -1 -0 -8 -0 -8 -44 -73 -11 -2 -14 -14 -6 -0 -0 -0 -0 -0 -0 -0 -1 -47 -113 -148 -169 -204 -0 -0 -0
-0 -0 -2 -0 -35 -25 -20 -3 -113 -0 -30 -44 -17 -5 -8 -4 -0 -0 -0 -0 -0 -16 -85 -125 -148 -144 -149 -171 -180 -180 -195 -0
-20 -12 -4 -3 -2 -0 -0 -20 -2 -16 -23 -7 -52 -7 -5 -3 -3 -1 -2 -7 -53 -96 -134 -148 -146 -154 -168 -183 -194 -208 -191 -223
-35 -10 -1 -0 -0 -0 -0 -0 -30 -307 -515 -0 -53 -1 -16 -1 -2 -4 -14 -40 -87 -139 -145 -134 -142 -137 -180 -223 -241 -245 -204 -223
-7 -2 -1 -0 -2 -1 -0 -2 -0 -39 -2 -10 -7 -21 -8 -0 -0 -0 -27 -115 -138 -138 -130 -135 -140 -173 -189 -234 -235 -228 -228 -221
-0 -0 -0 -1 -4 -9 -12 -35 -1 -2 -0 -5 -13 -16 -23 -0 -0 -2 -26 -122 -132 -135 -127 -164 -179 -195 -230 -227 -215 -202 -237 -143
-0 -0 -3 -0 -21 -8 -10 -50 -38 -1 -3 -4 -33 -10 -20 -6 -0 -15 -48 -107 -138 -112 -138 -182 -205 -129 -56 -203 -0 -0 -0 -0
-4 -0 -33 -34 -96 -70 -13 -4 -4 -2 -13 -8 -30 -2 -0 -0 -2 -32 -88 -137 -109 -159 -200 -171 -59 -71 -81 -0 -0 -0 -0 -0
-0 -84 -0 -22 -124 -108 -0 -8 -23 -16 -15 -18 -10 -29 -12 -0 -17 -79 -149 -119 -77 -70 -84 -55 -63 -68 -60 -0 -0 -0 -0 -0
-16 -6 -108 -11 -9 -4 -21 -16 -25 -30 -15 -20 -56 -91 -53 -91 -115 -130 -136 -82 -87 -99 -84 -100 -63 -35 -0 -0 -0 -0 -0 -0
-455 -160 -100 -29 -20 -51 -55 -43 -37 -18 -16 -36 -56 -82 -117 -120 -126 -140 -98 -115 -96 -86 -81 -79 -66 -0 -0 -0 -0 -0 -0 -0
-11 -0 -2 -18 -28 -38 -60 -43 -68 -55 -23 -46 -50 -67 -87 -86 -102 -84 -93 -75 -72 -56 -44 -0 -0 -0 -0 -0 -0 -0 -0 -0
-1 -11 -11 -12 -31 -52 -50 -62 -54 -65 -65 -49 -67 -68 -75 -98 -83 -62 -41 -39 -0 -0 -0 -0 -0 -0 -0 -0 -0 -0 -0 -0
-1 -36 -49 -13 -42 -59 -46 -39 -43 -42 -31 -20 -26 -69 -122 -100 -59 -36 -39 -0 -0 -0 -0 -0 -0 -0 -0 -0 -0 -0 -0 -0
-52 -77 -69 -71 -44 -48 -43 -28 -37 -38 -49 -102 -134 -119 -70 -45 -46 -26 -0 -0 -0 -0 -0 -0 -0 -0 -0 -0 -0 -0 -0 -0
Wind_Speed
nan nan nan 9 3 nan nan 9 16 nan 4 23 27 23 11 18 16 17 16 14 12 10 9 8 8 7 5 5 4 4 7 6
nan nan nan nan 17 nan 11 15 6 21 14 28 20 13 11 19 17 15 14 14 13 12 11 11 13 13 11 8 6 2 2 4
nan nan nan nan nan 11 11 22 23 nan nan 39 12 15 17 17 14 15 14 12 10 11 12 11 8 9 10 10 7 7 11 12
12 nan nan 11 3 nan 6 14 24 6 24 nan 13 22 23 21 17 13 11 9 11 8 9 13 16 16 14 16 17 15 13 14
6 nan 17 nan nan nan nan nan 33 23 19 14 15 22 17 17 14 14 11 14 12 14 18 23 25 20 21 20 nan nan nan nan
6 2 12 15 nan nan nan 16 33 nan 13 nan 17 20 19 19 13 13 13 18 20 24 25 30 29 24 22 21 19 20 nan nan
nan nan 11 17 11 5 4 nan 8 23 26 37 20 16 23 24 22 20 22 23 25 26 26 25 27 26 23 23 23 20 19 nan
nan nan 10 10 8 9 6 7 nan nan nan nan nan 13 21 20 22 27 27 23 27 26 27 26 29 28 23 nan nan nan 20 19
6 3 10 14 12 5 7 2 12 24 28 47 29 22 22 22 21 23 25 25 28 30 29 30 30 29 30 nan nan 26 23 20
11 6 16 17 21 29 33 41 39 34 26 43 25 30 24 28 30 32 31 30 30 30 34 33 33 34 nan nan nan 27 nan nan
16 20 7 28 22 24 23 26 nan 33 34 43 28 36 33 35 36 36 35 35 30 34 36 37 37 35 nan nan nan nan nan nan
24 18 21 36 56 nan 30 16 14 27 31 43 27 28 44 38 38 38 43 42 36 38 37 37 36 34 nan nan nan nan nan nan
22 12 20 50 nan nan 22 28 41 43 42 40 38 38 53 42 43 43 40 44 38 35 35 36 36 nan nan nan nan nan nan nan
nan 32 31 41 51 35 42 36 40 43 49 50 47 44 51 45 45 45 42 41 36 37 38 40 nan nan nan nan nan nan nan nan
nan 28 53 31 40 42 43 43 37 36 36 39 38 42 42 45 44 41 39 39 39 41 nan nan nan nan nan nan nan nan nan nan
27 31 34 30 31 29 27 26 33 32 39 39 39 39 40 42 44 42 42 41 nan nan nan nan nan nan nan nan nan nan nan nan
28 35 38 43 38 32 28 28 32 37 40 45 47 48 46 46 46 47 nan nan nan nan nan nan nan nan nan nan nan nan nan nan
37 38 33 36 30 32 29 30 34 39 43 45 45 49 48 46 nan nan nan nan nan nan nan nan nan nan nan nan nan nan nan nan
37 34 33 27 28 32 29 32 37 39 42 44 43 43 nan nan nan nan nan nan nan nan nan nan nan nan nan nan nan nan nan nan
Wind_Direction
nan nan nan 106 156 nan nan 95 324 nan 223 302 315 307 301 320 337 347 352 351 349 346 360 0 8 16 61 72 62 50 22 24
nan nan nan nan 159 nan 26 350 157 252 113 289 343 341 336 326 337 342 352 346 342 349 356 7 9 3 0 357 15 348 324 338
nan nan nan nan nan 128 169 243 188 nan nan 133 359 359 340 312 318 334 334 346 337 352 344 7 4 324 334 337 330 304 263 258
291 nan nan 118 248 nan 178 271 280 124 311 nan 34 342 347 341 302 318 314 317 321 333 349 348 342 319 305 301 302 293 287 282
324 nan 235 nan nan nan nan nan 251 221 261 81 329 327 347 357 1 332 317 317 317 299 295 299 311 321 317 306 nan nan nan nan
208 186 264 318 nan nan nan 180 259 nan 314 nan 294 309 318 320 312 316 325 315 314 304 303 305 305 308 309 302 292 282 nan nan
nan nan 204 229 105 345 292 nan 177 258 190 226 162 290 307 302 306 313 322 313 308 309 299 299 299 297 295 294 293 284 275 nan
nan nan 273 222 180 159 238 200 nan nan nan nan nan 281 297 300 297 301 309 307 300 302 298 298 297 300 291 nan nan nan 273 270
211 179 202 245 152 185 201 199 198 313 301 360 339 294 297 302 302 302 298 302 300 297 293 286 293 290 287 nan nan 275 272 266
166 207 235 225 226 206 210 200 196 210 227 265 262 280 287 303 294 294 297 290 289 287 285 286 286 282 nan nan nan 283 nan nan
174 261 215 260 269 261 252 250 nan 234 236 260 260 280 282 286 291 288 286 287 280 280 283 279 278 280 nan nan nan nan nan nan
205 214 185 232 220 nan 237 266 260 252 256 265 263 285 277 280 280 281 278 278 273 271 282 284 282 279 nan nan nan nan nan nan
221 211 221 292 nan nan 192 234 243 252 261 264 272 254 275 275 274 273 276 277 281 281 275 278 281 nan nan nan nan nan nan nan
nan 220 235 237 261 262 255 257 253 260 269 273 271 270 265 267 270 272 273 271 278 279 280 276 nan nan nan nan nan nan nan nan
nan 260 199 226 241 252 243 236 245 259 270 268 271 274 274 269 268 271 277 275 274 276 nan nan nan nan nan nan nan nan nan nan
229 256 256 237 242 239 248 245 257 256 269 277 278 279 278 278 276 276 276 278 nan nan nan nan nan nan nan nan nan nan nan nan
238 237 244 252 240 238 245 248 259 268 273 274 277 278 279 278 278 276 nan nan nan nan nan nan nan nan nan nan nan nan nan nan
244 247 243 245 238 242 245 258 264 267 268 269 273 274 276 276 nan nan nan nan nan nan nan nan nan nan nan nan nan nan nan nan
240 239 239 238 237 246 254 267 273 274 274 273 272 275 nan nan nan nan nan nan nan nan nan nan nan nan nan nan nan nan nan nan